30-06-2023, 00:00:09,    264,    0.2,   11.5,   0.00,   0.00, 1013.4,   59.1, -999.0
30-06-2023, 00:00:18,    265,    0.8,   11.6,   0.00,   0.00, 1013.5,   59.3, -999.0
30-06-2023, 00:00:29,    249,    2.1,   11.5,   0.00,   0.00, 1013.5,   59.3, -999.0
30-06-2023, 00:00:39,    248,    0.9,   11.5,   0.00,   0.00, 1013.5,   59.5, -999.0
30-06-2023, 00:00:48,    265,    0.5,   11.5,   0.00,   0.00, 1013.5,   59.5, -999.0
30-06-2023, 00:00:58,    268,    1.9,   11.5,   0.00,   0.00, 1013.5,   59.7, -999.0
30-06-2023, 00:01:09,    267,    1.8,   11.5,   0.00,   0.00, 1013.5,   59.7, -999.0
30-06-2023, 00:01:19,    265,    1.9,   11.5,   0.00,   0.00, 1013.5,   59.6, -999.0
30-06-2023, 00:01:28,    265,    1.1,   11.5,   0.00,   0.00, 1013.5,   59.7, -999.0
30-06-2023, 00:01:39,    264,    0.0,   11.4,   0.00,   0.00, 1013.4,   59.2, -999.0
30-06-2023, 00:01:49,    265,    0.0,   11.3,   0.00,   0.00, 1013.4,   59.2, -999.0
30-06-2023, 00:01:58,    266,    0.0,   11.3,   0.00,   0.00, 1013.4,   59.3, -999.0
30-06-2023, 00:02:08,    265,    0.6,   11.4,   0.00,   0.00, 1013.5,   59.7, -999.0
30-06-2023, 00:02:19,    264,    0.1,   11.4,   0.00,   0.00, 1013.4,   59.4, -999.0
30-06-2023, 00:02:28,    265,    0.1,   11.4,   0.00,   0.00, 1013.4,   59.4, -999.0
30-06-2023, 00:02:38,    261,    1.0,   11.4,   0.00,   0.00, 1013.5,   59.7, -999.0
30-06-2023, 00:02:48,    261,    1.0,   11.4,   0.00,   0.00, 1013.5,   59.8, -999.0
30-06-2023, 00:02:58,    261,    0.0,   11.4,   0.00,   0.00, 1013.4,   59.5, -999.0
30-06-2023, 00:03:08,    262,    0.6,   11.4,   0.00,   0.00, 1013.5,   59.8, -999.0
30-06-2023, 00:03:18,    258,    0.0,   11.3,   0.00,   0.00, 1013.4,   59.6, -999.0
30-06-2023, 00:03:28,    259,    0.0,   11.3,   0.00,   0.00, 1013.4,   59.6, -999.0
30-06-2023, 00:03:38,    258,    0.0,   11.2,   0.00,   0.00, 1013.4,   59.5, -999.0
30-06-2023, 00:03:48,    258,    0.5,   11.4,   0.00,   0.00, 1013.5,   59.9, -999.0
30-06-2023, 00:03:58,    258,    0.0,   11.3,   0.00,   0.00, 1013.4,   59.6, -999.0
30-06-2023, 00:04:08,    258,    0.0,   11.2,   0.00,   0.00, 1013.4,   59.7, -999.0
30-06-2023, 00:04:18,    258,    0.0,   11.3,   0.00,   0.00, 1013.4,   59.7, -999.0
30-06-2023, 00:04:28,    258,    0.0,   11.3,   0.00,   0.00, 1013.3,   59.8, -999.0
30-06-2023, 00:04:38,    267,    0.0,   11.3,   0.00,   0.00, 1013.4,   59.7, -999.0
30-06-2023, 00:04:48,    268,    0.4,   11.4,   0.00,   0.00, 1013.4,   59.9, -999.0
30-06-2023, 00:04:58,    267,    0.0,   11.3,   0.00,   0.00, 1013.3,   59.8, -999.0
30-06-2023, 00:05:08,    268,    0.0,   11.2,   0.00,   0.00, 1013.3,   59.8, -999.0
30-06-2023, 00:05:18,    268,    0.1,   11.3,   0.00,   0.00, 1013.4,   59.9, -999.0
30-06-2023, 00:05:28,    266,    0.3,   11.3,   0.00,   0.00, 1013.4,   60.0, -999.0
30-06-2023, 00:05:38,    287,    1.1,   11.3,   0.00,   0.00, 1013.5,   60.1, -999.0
30-06-2023, 00:05:48,    286,    0.8,   11.3,   0.00,   0.00, 1013.5,   60.3, -999.0
30-06-2023, 00:05:58,    286,    0.4,   11.3,   0.00,   0.00, 1013.4,   60.1, -999.0
30-06-2023, 00:06:08,    261,    0.3,   11.2,   0.00,   0.00, 1013.4,   60.0, -999.0
30-06-2023, 00:06:18,    261,    0.4,   11.2,   0.00,   0.00, 1013.5,   60.2, -999.0
30-06-2023, 00:06:28,    257,    0.7,   11.3,   0.00,   0.00, 1013.5,   60.2, -999.0
30-06-2023, 00:06:38,    256,    0.1,   11.3,   0.00,   0.00, 1013.4,   60.1, -999.0
30-06-2023, 00:06:48,    257,    0.0,   11.2,   0.00,   0.00, 1013.3,   60.0, -999.0
30-06-2023, 00:06:58,    257,    0.1,   11.3,   0.00,   0.00, 1013.4,   60.1, -999.0
30-06-2023, 00:07:08,    258,    1.0,   11.3,   0.00,   0.00, 1013.5,   60.3, -999.0
30-06-2023, 00:07:18,    258,    0.4,   11.2,   0.00,   0.00, 1013.5,   60.2, -999.0
30-06-2023, 00:07:28,    257,    0.0,   11.2,   0.00,   0.00, 1013.3,   59.9, -999.0
30-06-2023, 00:07:38,    256,    0.0,   11.2,   0.00,   0.00, 1013.4,   60.0, -999.0
30-06-2023, 00:07:48,    256,    0.3,   11.3,   0.00,   0.00, 1013.4,   60.3, -999.0
30-06-2023, 00:07:57,    256,    0.0,   11.2,   0.00,   0.00, 1013.3,   60.2, -999.0
30-06-2023, 00:08:08,    256,    0.0,   11.2,   0.00,   0.00, 1013.3,   60.1, -999.0
30-06-2023, 00:08:18,    256,    0.0,   11.1,   0.00,   0.00, 1013.3,   60.1, -999.0
30-06-2023, 00:08:27,    256,    0.0,   11.2,   0.00,   0.00, 1013.3,   60.1, -999.0
30-06-2023, 00:08:37,    256,    0.0,   11.2,   0.00,   0.00, 1013.3,   60.1, -999.0
30-06-2023, 00:08:48,    260,    0.1,   11.2,   0.00,   0.00, 1013.4,   60.3, -999.0
30-06-2023, 00:08:58,    260,    0.1,   11.3,   0.00,   0.00, 1013.4,   60.4, -999.0
30-06-2023, 00:09:07,    260,    0.1,   11.3,   0.00,   0.00, 1013.4,   60.4, -999.0
30-06-2023, 00:09:17,    260,    0.0,   11.2,   0.00,   0.00, 1013.3,   60.1, -999.0
30-06-2023, 00:09:28,    260,    0.0,   11.2,   0.00,   0.00, 1013.3,   60.2, -999.0
30-06-2023, 00:09:37,    260,    0.0,   11.2,   0.00,   0.00, 1013.3,   60.3, -999.0
30-06-2023, 00:09:47,    260,    0.0,   11.2,   0.00,   0.00, 1013.3,   60.2, -999.0
30-06-2023, 00:09:57,    260,    0.0,   11.2,   0.00,   0.00, 1013.3,   60.2, -999.0
30-06-2023, 00:10:07,    261,    0.0,   11.2,   0.00,   0.00, 1013.3,   60.3, -999.0
30-06-2023, 00:10:17,    260,    0.7,   11.3,   0.00,   0.00, 1013.4,   60.7, -999.0
30-06-2023, 00:10:27,    260,    0.3,   11.2,   0.00,   0.00, 1013.4,   60.7, -999.0
30-06-2023, 00:10:38,    260,    0.0,   11.2,   0.00,   0.00, 1013.3,   60.5, -999.0
30-06-2023, 00:10:47,    260,    0.0,   11.2,   0.00,   0.00, 1013.3,   60.4, -999.0
30-06-2023, 00:10:57,    261,    0.0,   11.1,   0.00,   0.00, 1013.3,   60.6, -999.0
30-06-2023, 00:11:07,    261,    0.0,   11.0,   0.00,   0.00, 1013.3,   60.7, -999.0
30-06-2023, 00:11:17,    260,    0.0,   11.2,   0.00,   0.00, 1013.3,   60.6, -999.0
30-06-2023, 00:11:27,    262,    0.0,   11.1,   0.00,   0.00, 1013.3,   60.7, -999.0
30-06-2023, 00:11:37,    260,    0.0,   11.2,   0.00,   0.00, 1013.3,   60.6, -999.0
30-06-2023, 00:11:47,    260,    0.0,   11.2,   0.00,   0.00, 1013.3,   60.5, -999.0
30-06-2023, 00:11:57,    260,    0.0,   11.2,   0.00,   0.00, 1013.3,   60.7, -999.0
30-06-2023, 00:12:07,    260,    0.0,   11.2,   0.00,   0.00, 1013.3,   60.7, -999.0
30-06-2023, 00:12:17,    261,    0.0,   11.2,   0.00,   0.00, 1013.2,   60.7, -999.0
30-06-2023, 00:12:27,    261,    0.0,   11.1,   0.00,   0.00, 1013.3,   60.6, -999.0
30-06-2023, 00:12:37,    261,    0.0,   11.1,   0.00,   0.00, 1013.3,   60.6, -999.0
30-06-2023, 00:12:47,    260,    0.0,   11.1,   0.00,   0.00, 1013.3,   60.7, -999.0
30-06-2023, 00:12:57,    260,    0.0,   11.1,   0.00,   0.00, 1013.3,   60.7, -999.0
30-06-2023, 00:13:07,    260,    0.0,   11.1,   0.00,   0.00, 1013.3,   60.7, -999.0
30-06-2023, 00:13:17,    260,    0.0,   11.2,   0.00,   0.00, 1013.3,   60.8, -999.0
30-06-2023, 00:13:27,    260,    0.0,   11.2,   0.00,   0.00, 1013.2,   60.7, -999.0
30-06-2023, 00:13:37,    261,    0.0,   11.1,   0.00,   0.00, 1013.3,   60.8, -999.0
30-06-2023, 00:13:47,    260,    0.0,   11.1,   0.00,   0.00, 1013.2,   60.7, -999.0
30-06-2023, 00:13:57,    261,    0.0,   11.1,   0.00,   0.00, 1013.3,   60.8, -999.0
30-06-2023, 00:14:07,    260,    0.0,   11.1,   0.00,   0.00, 1013.3,   60.8, -999.0
30-06-2023, 00:14:17,    260,    0.0,   11.1,   0.00,   0.00, 1013.3,   60.9, -999.0
30-06-2023, 00:14:27,    260,    0.0,   11.0,   0.00,   0.00, 1013.3,   61.0, -999.0
30-06-2023, 00:14:37,    260,    0.0,   11.2,   0.00,   0.00, 1013.3,   61.1, -999.0
30-06-2023, 00:14:47,    259,    0.0,   11.2,   0.00,   0.00, 1013.2,   61.1, -999.0
30-06-2023, 00:14:57,    259,    0.0,   11.2,   0.00,   0.00, 1013.2,   61.0, -999.0
30-06-2023, 00:15:06,    260,    0.0,   11.2,   0.00,   0.00, 1013.2,   60.9, -999.0
30-06-2023, 00:15:17,    260,    0.0,   11.1,   0.00,   0.00, 1013.2,   61.0, -999.0
30-06-2023, 00:15:27,    260,    0.1,   11.2,   0.00,   0.00, 1013.3,   61.0, -999.0
30-06-2023, 00:15:37,    260,    0.0,   11.1,   0.00,   0.00, 1013.3,   61.0, -999.0
30-06-2023, 00:15:46,    260,    0.0,   11.1,   0.00,   0.00, 1013.3,   61.0, -999.0
30-06-2023, 00:15:57,    260,    0.0,   11.0,   0.00,   0.00, 1013.2,   60.9, -999.0
30-06-2023, 00:16:07,    260,    0.0,   11.0,   0.00,   0.00, 1013.2,   61.1, -999.0
30-06-2023, 00:16:16,    254,    0.0,   11.0,   0.00,   0.00, 1013.2,   61.1, -999.0
30-06-2023, 00:16:26,    254,    0.0,   11.0,   0.00,   0.00, 1013.2,   61.2, -999.0
30-06-2023, 00:16:37,    255,    0.0,   11.0,   0.00,   0.00, 1013.3,   61.3, -999.0
30-06-2023, 00:16:47,    255,    0.0,   11.0,   0.00,   0.00, 1013.2,   61.2, -999.0
30-06-2023, 00:16:56,    254,    0.0,   11.0,   0.00,   0.00, 1013.2,   61.3, -999.0
30-06-2023, 00:17:06,    254,    0.0,   10.9,   0.00,   0.00, 1013.2,   61.3, -999.0
30-06-2023, 00:17:17,    255,    0.0,   10.9,   0.00,   0.00, 1013.2,   61.4, -999.0
30-06-2023, 00:17:26,    254,    0.0,   11.0,   0.00,   0.00, 1013.2,   61.3, -999.0
30-06-2023, 00:17:36,    255,    0.0,   11.0,   0.00,   0.00, 1013.2,   61.6, -999.0
30-06-2023, 00:17:46,    254,    0.0,   11.0,   0.00,   0.00, 1013.2,   61.6, -999.0
30-06-2023, 00:17:56,    255,    0.0,   11.0,   0.00,   0.00, 1013.2,   61.6, -999.0
30-06-2023, 00:18:06,    255,    0.0,   11.0,   0.00,   0.00, 1013.2,   61.7, -999.0
30-06-2023, 00:18:16,    255,    0.0,   11.0,   0.00,   0.00, 1013.2,   61.6, -999.0
30-06-2023, 00:18:26,    254,    0.0,   11.0,   0.00,   0.00, 1013.2,   61.5, -999.0
30-06-2023, 00:18:36,    261,    0.0,   11.0,   0.00,   0.00, 1013.2,   61.5, -999.0
30-06-2023, 00:18:46,    254,    0.0,   10.9,   0.00,   0.00, 1013.2,   61.6, -999.0
30-06-2023, 00:18:56,    254,    0.0,   10.9,   0.00,   0.00, 1013.2,   61.4, -999.0
30-06-2023, 00:19:06,    254,    0.0,   11.0,   0.00,   0.00, 1013.2,   61.5, -999.0
30-06-2023, 00:19:16,    254,    0.0,   10.9,   0.00,   0.00, 1013.2,   61.6, -999.0
30-06-2023, 00:19:26,    254,    0.0,   11.0,   0.00,   0.00, 1013.2,   61.5, -999.0
30-06-2023, 00:19:36,    254,    0.0,   10.9,   0.00,   0.00, 1013.2,   61.6, -999.0
30-06-2023, 00:19:46,    254,    0.0,   10.9,   0.00,   0.00, 1013.2,   61.7, -999.0
30-06-2023, 00:19:56,    253,    0.0,   10.9,   0.00,   0.00, 1013.2,   61.7, -999.0
30-06-2023, 00:20:06,    254,    0.0,   10.9,   0.00,   0.00, 1013.2,   61.9, -999.0
30-06-2023, 00:20:16,    254,    0.0,   10.9,   0.00,   0.00, 1013.2,   62.0, -999.0
30-06-2023, 00:20:26,    253,    0.0,   10.9,   0.00,   0.00, 1013.2,   62.0, -999.0
30-06-2023, 00:20:36,    256,    0.0,   10.9,   0.00,   0.00, 1013.2,   62.0, -999.0
30-06-2023, 00:20:46,    253,    0.0,   10.9,   0.00,   0.00, 1013.2,   62.0, -999.0
30-06-2023, 00:20:56,    253,    0.0,   11.0,   0.00,   0.00, 1013.2,   62.0, -999.0
30-06-2023, 00:21:06,    253,    0.0,   11.0,   0.00,   0.00, 1013.2,   62.0, -999.0
30-06-2023, 00:21:16,    253,    0.0,   10.9,   0.00,   0.00, 1013.2,   62.0, -999.0
30-06-2023, 00:21:26,    252,    0.0,   11.0,   0.00,   0.00, 1013.2,   62.0, -999.0
30-06-2023, 00:21:36,    253,    0.0,   10.9,   0.00,   0.00, 1013.2,   62.0, -999.0
30-06-2023, 00:21:46,    253,    0.0,   10.9,   0.00,   0.00, 1013.2,   62.0, -999.0
30-06-2023, 00:21:56,    253,    0.0,   10.9,   0.00,   0.00, 1013.2,   62.1, -999.0
30-06-2023, 00:22:06,    253,    0.0,   10.9,   0.00,   0.00, 1013.2,   62.2, -999.0
30-06-2023, 00:22:16,    253,    0.0,   10.8,   0.00,   0.00, 1013.2,   62.2, -999.0
30-06-2023, 00:22:25,    253,    0.0,   10.8,   0.00,   0.00, 1013.2,   62.1, -999.0
30-06-2023, 00:22:36,    253,    0.0,   10.9,   0.00,   0.00, 1013.2,   62.2, -999.0
30-06-2023, 00:22:46,    251,    0.0,   11.0,   0.00,   0.00, 1013.2,   62.4, -999.0
30-06-2023, 00:22:56,    251,    0.0,   11.0,   0.00,   0.00, 1013.2,   62.3, -999.0
30-06-2023, 00:23:05,    251,    0.0,   11.0,   0.00,   0.00, 1013.2,   62.2, -999.0
30-06-2023, 00:23:16,    251,    0.0,   11.0,   0.00,   0.00, 1013.2,   62.3, -999.0
30-06-2023, 00:23:26,    251,    0.0,   10.9,   0.00,   0.00, 1013.2,   62.3, -999.0
30-06-2023, 00:23:35,    251,    0.0,   11.0,   0.00,   0.00, 1013.2,   62.3, -999.0
30-06-2023, 00:23:45,    251,    0.0,   11.0,   0.00,   0.00, 1013.2,   62.1, -999.0
30-06-2023, 00:23:56,    251,    0.0,   11.0,   0.00,   0.00, 1013.2,   62.1, -999.0
30-06-2023, 00:24:06,    252,    0.0,   11.0,   0.00,   0.00, 1013.2,   62.0, -999.0
30-06-2023, 00:24:15,    251,    0.0,   11.0,   0.00,   0.00, 1013.2,   62.0, -999.0
30-06-2023, 00:24:25,    251,    0.0,   10.9,   0.00,   0.00, 1013.2,   62.0, -999.0
30-06-2023, 00:24:36,    252,    0.0,   10.9,   0.00,   0.00, 1013.2,   62.0, -999.0
30-06-2023, 00:24:45,    251,    0.0,   10.8,   0.00,   0.00, 1013.2,   62.1, -999.0
30-06-2023, 00:24:55,    252,    0.0,   10.8,   0.00,   0.00, 1013.2,   62.1, -999.0
30-06-2023, 00:25:05,    251,    0.0,   10.9,   0.00,   0.00, 1013.2,   62.1, -999.0
30-06-2023, 00:25:15,    251,    0.0,   10.9,   0.00,   0.00, 1013.2,   62.2, -999.0
30-06-2023, 00:25:25,    251,    0.0,   11.0,   0.00,   0.00, 1013.2,   62.2, -999.0
30-06-2023, 00:25:35,    252,    0.0,   10.9,   0.00,   0.00, 1013.2,   62.4, -999.0
30-06-2023, 00:25:45,    251,    0.0,   10.9,   0.00,   0.00, 1013.2,   62.5, -999.0
30-06-2023, 00:25:55,    251,    0.0,   10.8,   0.00,   0.00, 1013.2,   62.4, -999.0
30-06-2023, 00:26:05,    252,    0.0,   10.9,   0.00,   0.00, 1013.2,   62.3, -999.0
30-06-2023, 00:26:15,    252,    0.0,   10.9,   0.00,   0.00, 1013.2,   62.3, -999.0
30-06-2023, 00:26:25,    251,    0.0,   10.9,   0.00,   0.00, 1013.1,   62.4, -999.0
30-06-2023, 00:26:35,    252,    0.0,   10.9,   0.00,   0.00, 1013.1,   62.4, -999.0
30-06-2023, 00:26:45,    251,    0.0,   10.8,   0.00,   0.00, 1013.2,   62.4, -999.0
30-06-2023, 00:26:55,    252,    0.0,   10.9,   0.00,   0.00, 1013.2,   62.6, -999.0
30-06-2023, 00:27:05,    251,    0.0,   10.8,   0.00,   0.00, 1013.2,   62.7, -999.0
30-06-2023, 00:27:15,    252,    0.0,   10.9,   0.00,   0.00, 1013.2,   62.7, -999.0
30-06-2023, 00:27:26,    252,    0.0,   10.9,   0.00,   0.00, 1013.2,   62.6, -999.0
30-06-2023, 00:27:35,    251,    0.0,   10.9,   0.00,   0.00, 1013.2,   62.7, -999.0
30-06-2023, 00:27:45,    252,    0.0,   10.8,   0.00,   0.00, 1013.1,   62.7, -999.0
30-06-2023, 00:27:55,    252,    0.0,   10.9,   0.00,   0.00, 1013.1,   62.7, -999.0
30-06-2023, 00:28:05,    251,    0.0,   10.9,   0.00,   0.00, 1013.2,   62.7, -999.0
30-06-2023, 00:28:15,    252,    0.0,   10.9,   0.00,   0.00, 1013.2,   62.7, -999.0
30-06-2023, 00:28:25,    252,    0.0,   10.9,   0.00,   0.00, 1013.1,   62.7, -999.0
30-06-2023, 00:28:35,    251,    0.0,   10.8,   0.00,   0.00, 1013.2,   62.8, -999.0
30-06-2023, 00:28:45,    252,    0.0,   10.8,   0.00,   0.00, 1013.2,   62.8, -999.0
30-06-2023, 00:28:55,    252,    0.0,   10.8,   0.00,   0.00, 1013.2,   62.7, -999.0
30-06-2023, 00:29:05,    252,    0.0,   10.8,   0.00,   0.00, 1013.1,   62.7, -999.0
30-06-2023, 00:29:15,    252,    0.0,   10.8,   0.00,   0.00, 1013.1,   62.8, -999.0
30-06-2023, 00:29:25,    252,    0.0,   10.7,   0.00,   0.00, 1013.1,   62.9, -999.0
30-06-2023, 00:29:35,    252,    0.0,   10.8,   0.00,   0.00, 1013.1,   62.9, -999.0
30-06-2023, 00:29:45,    252,    0.0,   10.8,   0.00,   0.00, 1013.1,   62.9, -999.0
30-06-2023, 00:29:55,    251,    0.0,   10.8,   0.00,   0.00, 1013.1,   63.0, -999.0
30-06-2023, 00:30:05,    252,    0.0,   10.7,   0.00,   0.00, 1013.2,   63.1, -999.0
30-06-2023, 00:30:15,    252,    0.0,   10.8,   0.00,   0.00, 1013.2,   63.1, -999.0
30-06-2023, 00:30:25,    252,    0.0,   10.8,   0.00,   0.00, 1013.1,   63.1, -999.0
30-06-2023, 00:30:35,    252,    0.0,   10.8,   0.00,   0.00, 1013.1,   62.9, -999.0
30-06-2023, 00:30:45,    252,    0.0,   10.7,   0.00,   0.00, 1013.2,   63.0, -999.0
30-06-2023, 00:30:54,    252,    0.0,   10.6,   0.00,   0.00, 1013.2,   63.1, -999.0
30-06-2023, 00:31:05,    253,    0.0,   10.7,   0.00,   0.00, 1013.2,   63.0, -999.0
30-06-2023, 00:31:15,    252,    0.0,   10.7,   0.00,   0.00, 1013.2,   63.1, -999.0
30-06-2023, 00:31:25,    252,    0.0,   10.7,   0.00,   0.00, 1013.1,   63.1, -999.0
30-06-2023, 00:31:34,    252,    0.0,   10.8,   0.00,   0.00, 1013.2,   63.1, -999.0
30-06-2023, 00:31:45,    252,    0.0,   10.8,   0.00,   0.00, 1013.2,   63.0, -999.0
30-06-2023, 00:31:55,    253,    0.0,   10.6,   0.00,   0.00, 1013.1,   62.9, -999.0
30-06-2023, 00:32:04,    252,    0.0,   10.6,   0.00,   0.00, 1013.1,   63.0, -999.0
30-06-2023, 00:32:14,    253,    0.0,   10.7,   0.00,   0.00, 1013.2,   63.2, -999.0
30-06-2023, 00:32:25,    253,    0.2,   10.7,   0.00,   0.00, 1013.2,   63.2, -999.0
30-06-2023, 00:32:34,    253,    0.0,   10.7,   0.00,   0.00, 1013.2,   63.1, -999.0
30-06-2023, 00:32:44,    253,    0.0,   10.7,   0.00,   0.00, 1013.2,   63.2, -999.0
30-06-2023, 00:32:54,    253,    0.0,   10.7,   0.00,   0.00, 1013.2,   63.1, -999.0
30-06-2023, 00:33:05,    253,    0.0,   10.7,   0.00,   0.00, 1013.1,   63.1, -999.0
30-06-2023, 00:33:14,    252,    0.0,   10.7,   0.00,   0.00, 1013.2,   63.2, -999.0
30-06-2023, 00:33:24,    253,    0.0,   10.7,   0.00,   0.00, 1013.2,   63.1, -999.0
30-06-2023, 00:33:34,    253,    0.0,   10.6,   0.00,   0.00, 1013.2,   63.1, -999.0
30-06-2023, 00:33:44,    252,    0.0,   10.7,   0.00,   0.00, 1013.2,   63.3, -999.0
30-06-2023, 00:33:54,    253,    0.0,   10.6,   0.00,   0.00, 1013.2,   63.3, -999.0
30-06-2023, 00:34:04,    252,    0.0,   10.6,   0.00,   0.00, 1013.2,   63.4, -999.0
30-06-2023, 00:34:14,    253,    0.0,   10.7,   0.00,   0.00, 1013.2,   63.3, -999.0
30-06-2023, 00:34:24,    252,    0.0,   10.7,   0.00,   0.00, 1013.2,   63.4, -999.0
30-06-2023, 00:34:34,    253,    0.0,   10.7,   0.00,   0.00, 1013.2,   63.5, -999.0
30-06-2023, 00:34:44,    253,    0.0,   10.7,   0.00,   0.00, 1013.2,   63.4, -999.0
30-06-2023, 00:34:54,    253,    0.0,   10.7,   0.00,   0.00, 1013.2,   63.4, -999.0
30-06-2023, 00:35:04,    253,    0.0,   10.7,   0.00,   0.00, 1013.2,   63.5, -999.0
30-06-2023, 00:35:14,    252,    0.0,   10.7,   0.00,   0.00, 1013.2,   63.5, -999.0
30-06-2023, 00:35:24,    253,    0.0,   10.7,   0.00,   0.00, 1013.2,   63.6, -999.0
30-06-2023, 00:35:34,    253,    0.0,   10.6,   0.00,   0.00, 1013.2,   63.7, -999.0
30-06-2023, 00:35:44,    253,    0.0,   10.7,   0.00,   0.00, 1013.1,   63.7, -999.0
30-06-2023, 00:35:54,    253,    0.0,   10.7,   0.00,   0.00, 1013.2,   63.7, -999.0
30-06-2023, 00:36:04,    253,    0.4,   10.7,   0.00,   0.00, 1013.3,   63.8, -999.0
30-06-2023, 00:36:14,    253,    0.4,   10.7,   0.00,   0.00, 1013.3,   63.7, -999.0
30-06-2023, 00:36:24,    253,    0.2,   10.7,   0.00,   0.00, 1013.2,   63.8, -999.0
30-06-2023, 00:36:34,    253,    0.0,   10.6,   0.00,   0.00, 1013.2,   63.7, -999.0
30-06-2023, 00:36:44,    253,    0.0,   10.6,   0.00,   0.00, 1013.1,   63.4, -999.0
30-06-2023, 00:36:54,    253,    0.0,   10.6,   0.00,   0.00, 1013.2,   63.6, -999.0
30-06-2023, 00:37:04,    258,    0.8,   10.8,   0.00,   0.00, 1013.3,   63.9, -999.0
30-06-2023, 00:37:14,    259,    0.2,   10.7,   0.00,   0.00, 1013.2,   63.6, -999.0
30-06-2023, 00:37:24,    258,    0.7,   10.7,   0.00,   0.00, 1013.3,   63.6, -999.0
30-06-2023, 00:37:34,    259,    0.9,   10.7,   0.00,   0.00, 1013.3,   63.7, -999.0
30-06-2023, 00:37:44,    259,    0.3,   10.7,   0.00,   0.00, 1013.3,   63.6, -999.0
30-06-2023, 00:37:54,    259,    0.0,   10.6,   0.00,   0.00, 1013.2,   63.6, -999.0
30-06-2023, 00:38:04,    258,    0.0,   10.5,   0.00,   0.00, 1013.1,   63.6, -999.0
30-06-2023, 00:38:14,    262,    0.5,   10.6,   0.00,   0.00, 1013.2,   63.7, -999.0
30-06-2023, 00:38:24,    262,    0.2,   10.6,   0.00,   0.00, 1013.2,   63.9, -999.0
30-06-2023, 00:38:34,    262,    0.0,   10.6,   0.00,   0.00, 1013.2,   63.5, -999.0
30-06-2023, 00:38:43,    262,    0.0,   10.6,   0.00,   0.00, 1013.2,   63.5, -999.0
30-06-2023, 00:38:54,    262,    0.0,   10.6,   0.00,   0.00, 1013.2,   63.7, -999.0
30-06-2023, 00:39:04,    263,    0.0,   10.7,   0.00,   0.00, 1013.1,   63.6, -999.0
30-06-2023, 00:39:13,    263,    0.0,   10.6,   0.00,   0.00, 1013.1,   63.7, -999.0
30-06-2023, 00:39:23,    262,    0.0,   10.6,   0.00,   0.00, 1013.1,   63.6, -999.0
30-06-2023, 00:39:34,    262,    0.0,   10.7,   0.00,   0.00, 1013.1,   63.7, -999.0
30-06-2023, 00:39:43,    262,    0.0,   10.6,   0.00,   0.00, 1013.1,   63.5, -999.0
30-06-2023, 00:39:53,    262,    0.0,   10.7,   0.00,   0.00, 1013.1,   63.7, -999.0
30-06-2023, 00:40:03,    262,    0.0,   10.6,   0.00,   0.00, 1013.1,   63.8, -999.0
30-06-2023, 00:40:14,    262,    0.0,   10.7,   0.00,   0.00, 1013.1,   63.9, -999.0
30-06-2023, 00:40:23,    262,    0.0,   10.7,   0.00,   0.00, 1013.1,   63.9, -999.0
30-06-2023, 00:40:33,    263,    0.0,   10.7,   0.00,   0.00, 1013.1,   63.7, -999.0
30-06-2023, 00:40:43,    262,    0.0,   10.6,   0.00,   0.00, 1013.1,   63.7, -999.0
30-06-2023, 00:40:53,    262,    0.0,   10.6,   0.00,   0.00, 1013.1,   63.8, -999.0
30-06-2023, 00:41:03,    262,    0.0,   10.7,   0.00,   0.00, 1013.1,   63.8, -999.0
30-06-2023, 00:41:13,    262,    0.0,   10.6,   0.00,   0.00, 1013.1,   63.8, -999.0
30-06-2023, 00:41:23,    262,    0.0,   10.7,   0.00,   0.00, 1013.1,   64.1, -999.0
30-06-2023, 00:41:33,    263,    0.0,   10.7,   0.00,   0.00, 1013.1,   64.0, -999.0
30-06-2023, 00:41:43,    262,    0.0,   10.7,   0.00,   0.00, 1013.1,   64.2, -999.0
30-06-2023, 00:41:53,    262,    0.0,   10.7,   0.00,   0.00, 1013.1,   64.3, -999.0
30-06-2023, 00:42:03,    262,    0.0,   10.7,   0.00,   0.00, 1013.1,   64.2, -999.0
30-06-2023, 00:42:13,    262,    0.0,   10.6,   0.00,   0.00, 1013.1,   64.2, -999.0
30-06-2023, 00:42:23,    262,    0.0,   10.7,   0.00,   0.00, 1013.1,   64.0, -999.0
30-06-2023, 00:42:33,    262,    0.0,   10.7,   0.00,   0.00, 1013.1,   63.9, -999.0
30-06-2023, 00:42:43,    262,    0.0,   10.6,   0.00,   0.00, 1013.1,   63.7, -999.0
30-06-2023, 00:42:53,    262,    0.0,   10.6,   0.00,   0.00, 1013.1,   63.7, -999.0
30-06-2023, 00:43:03,    262,    0.0,   10.6,   0.00,   0.00, 1013.1,   63.7, -999.0
30-06-2023, 00:43:13,    262,    0.0,   10.6,   0.00,   0.00, 1013.1,   63.8, -999.0
30-06-2023, 00:43:23,    254,    0.0,   10.5,   0.00,   0.00, 1013.1,   63.9, -999.0
30-06-2023, 00:43:33,    254,    0.0,   10.5,   0.00,   0.00, 1013.1,   63.9, -999.0
30-06-2023, 00:43:43,    253,    0.0,   10.5,   0.00,   0.00, 1013.1,   63.9, -999.0
30-06-2023, 00:43:53,    247,    0.0,   10.5,   0.00,   0.00, 1013.1,   64.0, -999.0
30-06-2023, 00:44:03,    222,    0.0,   10.5,   0.00,   0.00, 1013.1,   64.0, -999.0
30-06-2023, 00:44:13,    222,    0.0,   10.6,   0.00,   0.00, 1013.1,   64.2, -999.0
30-06-2023, 00:44:23,    231,    0.0,   10.6,   0.00,   0.00, 1013.1,   64.2, -999.0
30-06-2023, 00:44:33,    231,    0.0,   10.5,   0.00,   0.00, 1013.1,   64.1, -999.0
30-06-2023, 00:44:43,    232,    0.0,   10.5,   0.00,   0.00, 1013.1,   64.0, -999.0
30-06-2023, 00:44:53,    230,    0.0,   10.5,   0.00,   0.00, 1013.1,   64.1, -999.0
30-06-2023, 00:45:03,    231,    0.0,   10.5,   0.00,   0.00, 1013.1,   64.1, -999.0
30-06-2023, 00:45:13,    231,    0.0,   10.5,   0.00,   0.00, 1013.1,   64.2, -999.0
30-06-2023, 00:45:23,    231,    0.0,   10.5,   0.00,   0.00, 1013.1,   64.1, -999.0
30-06-2023, 00:45:33,    231,    0.0,   10.5,   0.00,   0.00, 1013.1,   64.0, -999.0
30-06-2023, 00:45:43,    231,    0.0,   10.6,   0.00,   0.00, 1013.1,   64.1, -999.0
30-06-2023, 00:45:52,    231,    0.0,   10.5,   0.00,   0.00, 1013.1,   64.2, -999.0
30-06-2023, 00:46:03,    232,    0.0,   10.5,   0.00,   0.00, 1013.1,   64.3, -999.0
30-06-2023, 00:46:13,    231,    0.0,   10.4,   0.00,   0.00, 1013.0,   64.2, -999.0
30-06-2023, 00:46:22,    231,    0.0,   10.4,   0.00,   0.00, 1013.1,   64.3, -999.0
30-06-2023, 00:46:32,    231,    0.0,   10.5,   0.00,   0.00, 1013.0,   64.4, -999.0
30-06-2023, 00:46:43,    231,    0.0,   10.5,   0.00,   0.00, 1013.0,   64.5, -999.0
30-06-2023, 00:46:53,    232,    0.0,   10.5,   0.00,   0.00, 1013.0,   64.6, -999.0